• In Uzbekistan
  • List of Countries
  • For 7 days
  • Water Temperature
  • Satellite Maps
  • Weather Map
  • Weather Widgets
  • user-avatar
    Login

    Hourly Weather Kurah

    Today, 17 October, Wednesday

    Time Temperature Precipitation Wind Pressure Humidity
    00:00 +9°C° 0 mm 1 mps 653 mmHg 78%
    01:00 +8°C° 0 mm 1 mps 652 mmHg 77%
    02:00 +8°C° 0 mm 1 mps 652 mmHg 75%
    03:00 +8°C° 0 mm 1 mps 652 mmHg 73%
    04:00 +8°C° 0 mm 1 mps 652 mmHg 70%
    05:00 +8°C° 0 mm 1 mps 652 mmHg 68%
    06:00 +8°C° 0 mm 1 mps 652 mmHg 66%
    07:00 +10°C° 0 mm 1 mps 653 mmHg 59%
    08:00 +12°C° 0 mm 2 mps 653 mmHg 53%
    09:00 +14°C° 0 mm 2 mps 654 mmHg 46%
    10:00 +15°C° 0 mm 2 mps 654 mmHg 46%
    11:00 +16°C° 0 mm 2 mps 654 mmHg 45%
    12:00 +16°C° 0 mm 3 mps 654 mmHg 45%
    13:00 +16°C° 0 mm 3 mps 653 mmHg 47%
    14:00 +16°C° 0 mm 3 mps 653 mmHg 50%
    15:00 +14°C° 0 mm 3 mps 653 mmHg 52%
    16:00 +14°C° 0 mm 2 mps 652 mmHg 61%
    17:00 +12°C° 0 mm 2 mps 652 mmHg 70%
    18:00 +10°C° 0 mm 1 mps 651 mmHg 79%
    19:00 +10°C° 0 mm 1 mps 651 mmHg 75%
    20:00 +10°C° 0 mm 1 mps 651 mmHg 72%
    21:00 +9°C° 0 mm 1 mps 651 mmHg 68%
    22:00 +9°C° 0 mm 1 mps 650 mmHg 62%
    23:00 +9°C° 0 mm 1 mps 650 mmHg 56%

    Tomorrow, 18 October, Thursday

    Time Temperature Precipitation Wind Pressure Humidity
    00:00 +8°C° 0 mm 2 mps 650 mmHg 50%
    01:00 +8°C° 0 mm 2 mps 650 mmHg 45%
    02:00 +8°C° 0 mm 2 mps 650 mmHg 39%
    03:00 +8°C° 0 mm 2 mps 650 mmHg 34%
    04:00 +9°C° 0 mm 1 mps 649 mmHg 30%
    05:00 +9°C° 0 mm 1 mps 649 mmHg 27%
    06:00 +9°C° 0 mm 1 mps 649 mmHg 23%
    07:00 +11°C° 0 mm 1 mps 650 mmHg 24%
    08:00 +13°C° 0 mm 1 mps 651 mmHg 24%
    09:00 +15°C° 0 mm 1 mps 652 mmHg 25%
    10:00 +16°C° 0 mm 2 mps 652 mmHg 27%
    11:00 +17°C° 0 mm 2 mps 652 mmHg 29%
    12:00 +17°C° 0 mm 2 mps 652 mmHg 32%
    13:00 +17°C° 0 mm 2 mps 652 mmHg 36%
    14:00 +17°C° 0 mm 2 mps 651 mmHg 40%
    15:00 +16°C° 0 mm 2 mps 651 mmHg 44%
    16:00 +14°C° 0 mm 2 mps 651 mmHg 53%
    17:00 +12°C° 0 mm 1 mps 650 mmHg 63%
    18:00 +10°C° 0 mm 1 mps 650 mmHg 72%
    19:00 +10°C° 0 mm 1 mps 650 mmHg 68%
    20:00 +10°C° 0 mm 1 mps 650 mmHg 65%
    21:00 +10°C° 0 mm 1 mps 650 mmHg 61%
    22:00 +10°C° 0 mm 1 mps 650 mmHg 58%
    23:00 +9°C° 0 mm 1 mps 650 mmHg 55%

    Day after tomorrow, 19 October, Friday

    Time Temperature Precipitation Wind Pressure Humidity
    00:00 +8°C° 0 mm 2 mps 650 mmHg 52%
    01:00 +8°C° 0 mm 2 mps 650 mmHg 49%
    02:00 +8°C° 0 mm 2 mps 649 mmHg 46%
    03:00 +8°C° 0 mm 2 mps 649 mmHg 44%
    04:00 +8°C° 0 mm 2 mps 649 mmHg 41%
    05:00 +8°C° 0 mm 2 mps 649 mmHg 39%
    06:00 +7°C° 0 mm 2 mps 649 mmHg 37%
    07:00 +10°C° 0 mm 2 mps 650 mmHg 34%
    08:00 +13°C° 0 mm 2 mps 651 mmHg 30%
    09:00 +15°C° 0 mm 1 mps 652 mmHg 27%
    10:00 +16°C° 0 mm 2 mps 652 mmHg 28%
    11:00 +17°C° 0 mm 2 mps 652 mmHg 30%
    12:00 +18°C° 0 mm 3 mps 652 mmHg 32%
    13:00 +17°C° 0 mm 3 mps 651 mmHg 36%
    14:00 +17°C° 0 mm 3 mps 651 mmHg 41%
    15:00 +17°C° 0 mm 2 mps 651 mmHg 46%
    16:00 +15°C° 0 mm 2 mps 650 mmHg 56%
    17:00 +13°C° 0 mm 2 mps 649 mmHg 65%
    18:00 +11°C° 0 mm 1 mps 649 mmHg 75%
    19:00 +11°C° 0 mm 1 mps 649 mmHg 74%
    20:00 +11°C° 0 mm 1 mps 649 mmHg 73%
    21:00 +10°C° 0 mm 2 mps 649 mmHg 71%
    22:00 +9°C° 0 mm 2 mps 649 mmHg 70%
    23:00 +9°C° 0 mm 2 mps 649 mmHg 69%

    20 October, Saturday

    Time Temperature Precipitation Wind Pressure Humidity
    00:00 +9°C° 0 mm 2 mps 648 mmHg 68%
    01:00 +9°C° 0 mm 2 mps 648 mmHg 67%
    02:00 +9°C° 0 mm 2 mps 648 mmHg 67%
    03:00 +9°C° 0 mm 2 mps 648 mmHg 66%
    04:00 +9°C° 0 mm 2 mps 648 mmHg 64%
    05:00 +9°C° 0 mm 2 mps 647 mmHg 61%
    06:00 +9°C° 0 mm 2 mps 647 mmHg 59%
    07:00 +12°C° 0 mm 2 mps 648 mmHg 51%
    08:00 +15°C° 0 mm 2 mps 649 mmHg 43%
    09:00 +18°C° 0 mm 1 mps 650 mmHg 35%
    10:00 +18°C° 0 mm 2 mps 649 mmHg 34%
    11:00 +19°C° 0 mm 2 mps 649 mmHg 33%
    12:00 +20°C° 0 mm 2 mps 649 mmHg 31%
    13:00 +19°C° 0 mm 2 mps 649 mmHg 34%
    14:00 +19°C° 0 mm 2 mps 649 mmHg 36%
    15:00 +19°C° 0 mm 2 mps 648 mmHg 38%
    16:00 +18°C° 0 mm 1 mps 648 mmHg 45%
    17:00 +15°C° 0 mm 1 mps 647 mmHg 52%
    18:00 +13°C° 0 mm 1 mps 647 mmHg 59%
    19:00 +13°C° 0 mm 1 mps 647 mmHg 57%
    20:00 +13°C° 0 mm 1 mps 647 mmHg 54%
    21:00 +13°C° 0 mm 1 mps 647 mmHg 51%
    22:00 +12°C° 0 mm 1 mps 647 mmHg 49%
    23:00 +12°C° 0 mm 2 mps 647 mmHg 47%

    21 October, Sunday

    Time Temperature Precipitation Wind Pressure Humidity
    00:00 +12°C° 0 mm 2 mps 646 mmHg 44%
    01:00 +12°C° 0 mm 2 mps 646 mmHg 43%
    02:00 +12°C° 0 mm 2 mps 646 mmHg 42%
    03:00 +12°C° 0 mm 2 mps 646 mmHg 40%
    04:00 +12°C° 0 mm 2 mps 646 mmHg 39%
    05:00 +10°C° 0 mm 2 mps 646 mmHg 38%
    06:00 +10°C° 0 mm 2 mps 646 mmHg 37%
    07:00 +13°C° 0 mm 1 mps 647 mmHg 33%
    08:00 +16°C° 0 mm 1 mps 647 mmHg 30%
    09:00 +19°C° 0 mm 1 mps 648 mmHg 26%
    10:00 +18°C° 0 mm 2 mps 648 mmHg 27%
    11:00 +19°C° 0 mm 2 mps 648 mmHg 28%
    12:00 +20°C° 0 mm 2 mps 648 mmHg 29%
    13:00 +19°C° 0 mm 2 mps 647 mmHg 32%
    14:00 +19°C° 0 mm 2 mps 647 mmHg 35%
    15:00 +18°C° 0 mm 2 mps 646 mmHg 37%
    16:00 +17°C° 0 mm 2 mps 646 mmHg 43%
    17:00 +15°C° 0 mm 1 mps 646 mmHg 49%
    18:00 +13°C° 0 mm 1 mps 645 mmHg 55%
    19:00 +13°C° 0 mm 1 mps 645 mmHg 54%
    20:00 +13°C° 0 mm 1 mps 645 mmHg 54%
    21:00 +13°C° 0 mm 1 mps 645 mmHg 53%
    22:00 +13°C° 0 mm 1 mps 645 mmHg 52%
    23:00 +13°C° 0 mm 1 mps 645 mmHg 52%

    22 October, Monday

    Time Temperature Precipitation Wind Pressure Humidity
    00:00 +12°C° 0 mm 1 mps 644 mmHg 51%
    01:00 +12°C° 0 mm 1 mps 644 mmHg 51%
    02:00 +12°C° 0 mm 1 mps 644 mmHg 52%
    03:00 +12°C° 0 mm 2 mps 644 mmHg 52%
    04:00 +12°C° 0 mm 1 mps 644 mmHg 52%
    05:00 +12°C° 0 mm 1 mps 644 mmHg 53%
    06:00 +12°C° 0 mm 1 mps 644 mmHg 54%
    07:00 +14°C° 0 mm 1 mps 645 mmHg 50%
    08:00 +15°C° 0 mm 1 mps 646 mmHg 46%
    09:00 +18°C° 0 mm 1 mps 646 mmHg 43%
    10:00 +18°C° 0 mm 2 mps 646 mmHg 41%
    11:00 +19°C° 0 mm 2 mps 646 mmHg 39%
    12:00 +19°C° 0 mm 2 mps 647 mmHg 37%
    13:00 +19°C° 0 mm 2 mps 646 mmHg 39%
    14:00 +19°C° 0 mm 2 mps 646 mmHg 40%
    15:00 +18°C° 0 mm 2 mps 646 mmHg 42%
    16:00 +17°C° 0 mm 2 mps 646 mmHg 48%
    17:00 +15°C° 0 mm 2 mps 646 mmHg 53%
    18:00 +13°C° 0 mm 1 mps 645 mmHg 59%
    19:00 +13°C° 0 mm 1 mps 646 mmHg 58%
    20:00 +13°C° 0 mm 1 mps 646 mmHg 57%
    21:00 +13°C° 0 mm 1 mps 646 mmHg 56%
    22:00 +13°C° 0 mm 1 mps 646 mmHg 56%
    23:00 +12°C° 0 mm 1 mps 646 mmHg 57%
    Show more